{"data":{"norad_id":66788,"epoch":"2026-05-25T04:44:30.240672Z","epoch_age_seconds":61187,"freshness":"FRESH","line1":"1 66788U 25276ED  26145.19757223  .00008628  00000+0  39009-3 0  9998","line2":"2 66788  97.4246 219.2284 0005640 187.8580 172.2568 15.21161019 26937","mean_motion":15.21161019,"eccentricity":0.000564,"inclination_deg":97.4246,"raan_deg":219.2284,"arg_perigee_deg":187.858,"mean_anomaly_deg":172.2568,"bstar":0.00039009,"rev_number":2693,"period_min":94.664534655683,"perigee_km":498.45680474288,"apogee_km":506.21797985739,"semimajor_km":6880.4743923001,"source":"CELESTRAK","updated_at":"2026-05-25T13:38:06.482314Z"}}